sat.trackr.live / text

‹ back to catalog

ONEWEB-0197

NORAD 48236 · 2021-031AC

PAYLOAD ACTIVE UNKNOWN

§ Identity

Operator
Country
UK
Launch date
2021-04-25
Launch site
VOSTO
Launch vehicle
Mass (kg)
RCS (m²)

Purposes: comms

External: N2YO · Heavens-Above · Gunter

§ Orbital elements

Epoch: 2026-09-19T18:21:43.717248Z

Period
109.55 min
Inclination
87.8891°
Eccentricity
0.0002000
Mean motion
13.14504552 rev/d
Perigee alt
1,204.3 km
Apogee alt
1,207.3 km
Semi-major
7,583.9 km
B*
1.1488e-4
RAAN
270.8197°
Arg perigee
94.4627°
Mean anomaly
265.6731°
Rev number
26,061

§ Raw data

ONEWEB-01971 48236U 21031AC  26262.76508932  .00000055  00000+0  11488-3 0  99922 48236  87.8891 270.8197 0002000  94.4627 265.6731 13.14504552260619

JSON: /api/v1/satellites/48236 · /tle

For live sub-satellite position, see the globe view (requires WebGL).

§ Visibility from observer

Set your observer location to see the next 7 days of passes ≥ 10°. The values pass through the URL so the page stays shareable.

No JS? Fill the form by hand. The geolocation button needs JavaScript.